Please be sure to check the latest weather conditions by clicking the link and viewing our local weather information!

Check Weather

Welcome to Lakeway Airpark (3R9)

FromTheAir

We’re a community airpark nestled within the town of Lakeway, Texas (17 miles northwest of downtown Austin).

Lakeway Airpark, Inc. was formed by Lakeway residents and interested parties to own and manage Lakeway Airpark (3R9).

The Airpark is a privately owned not for profit public use airport for residents and guests of Lakeway. No public funds are used and the airport is supported by fees and fuel sales at the airport.

Lakeway Airpark is an unmanned facility open for use from Sunrise to Sunset seven days a week. Takeoffs and landings are not permitted at night, between Sunset and Sunrise, by City Ordinance.

Quick Weather Info

Available data for KAUS from the past 2 hours
AUSTIN, TX
Metar
KAUS 181753Z 17012KT 10SM FEW040 FEW080 BKN250 31/23 A2992 RMK AO2 SLP121 60000 T03110228 10317 20228 58023

17:53 UTC

Wind: 170° 12kt

Visibility: 10 SM

Sky: FEW 4000 ft

Temp: 31 deg C / 87.8 deg F

Dewpoint: 23 deg C / 73.4 deg F

Pressure: 29.92 inHg

TAF
KAUS 181731Z 1818/1924 18008KT P6SM FEW060 BKN250 FM191000 19007KT P6SM BKN015 FM191400 19013KT P6SM SCT050